Location: ???????
(55.4362°N, 38.1183°E)
Time: 03:39:18
(UTC+00:00)

SL-4 R/B - Pass Details

Date: 17 June 2021
Orbit: 428 x 662 km, 51.6° (Epoch: 26 July)

Event Time Altitude Azimuth Distance (km) Brightness Sun altitude
Exits shadow 22:22:11 - 235° (SW) 1,877 4.3 -10.3°
Reaches altitude 10° 22:22:39 10° 232° (SW) 1,701 4.1 -10.3°
Maximum altitude 22:26:11 36° 165° (SSE) 765 2.3 -10.2°
Drops below altitude 10° 22:29:31 10° 97° (E) 1,599 4.5 -10.1°
Sets 22:31:41 0° 89° (E) 2,446 5.6 -10.0°
